| time (UTC) | temp F | wind direction | speed knots | gust knots | rain 1hr in | rain 24hr in | rain mn in | humidity % | barometer mb |
| 20260509114956 | 66 | 297 | 1.7 | 5.2 | 0.00 | 0.00 | 0.00 | 59 | 1017.1 |
| 20260509113955 | 65 | 298 | 3.5 | 6.1 | 0.00 | 0.00 | 0.00 | 57 | 1017.1 |
| 20260509112955 | 65 | 62 | 1.7 | 7.0 | 0.00 | 0.00 | 0.00 | 57 | 1017.3 |
| 20260509111956 | 66 | 56 | 4.3 | 8.7 | 0.00 | 0.00 | 0.00 | 58 | 1017.3 |
| 20260509110954 | 66 | 342 | 1.7 | 7.8 | 0.00 | 0.00 | 0.00 | 61 | 1017.4 |
| 20260509104954 | 65 | 5 | 4.3 | 8.7 | 0.00 | 0.00 | 0.00 | 57 | 1017.6 |
| 20260509102955 | 64 | 55 | 0.9 | 4.3 | 0.00 | 0.00 | 0.00 | 61 | 1017.7 |
| 20260509101955 | 65 | 42 | 5.2 | 9.6 | 0.00 | 0.00 | 0.00 | 60 | 1017.7 |
| 20260509095955 | 64 | 75 | 2.6 | 7.8 | 0.00 | 0.00 | 0.00 | 62 | 1018.0 |
| 20260509094955 | 64 | 57 | 1.7 | 7.0 | 0.00 | 0.00 | 0.00 | 64 | 1018.0 |
| 20260509093956 | 63 | 66 | 3.5 | 8.7 | 0.00 | 0.00 | 0.00 | 64 | 1018.1 |
| 20260509090955 | 62 | 69 | 3.5 | 7.0 | 0.00 | 0.00 | 0.00 | 71 | 1018.1 |
| 20260509085955 | 62 | 76 | 4.3 | 7.8 | 0.00 | 0.00 | 0.00 | 72 | 1018.1 |
| 20260509084955 | 61 | 55 | 4.3 | 7.8 | 0.00 | 0.00 | 0.00 | 75 | 1018.1 |
| 20260509083955 | 60 | 47 | 4.3 | 7.8 | 0.00 | 0.00 | 0.00 | 76 | 1018.1 |
| 20260509082955 | 60 | 43 | 5.2 | 7.8 | 0.00 | 0.00 | 0.00 | 77 | 1018.1 |
| 20260509081955 | 59 | 51 | 5.2 | 7.8 | 0.00 | 0.00 | 0.00 | 79 | 1018.1 |
| 20260509080956 | 58 | 48 | 6.1 | 8.7 | 0.00 | 0.00 | 0.00 | 80 | 1018.2 |
| 20260509075955 | 58 | 51 | 6.1 | 9.6 | 0.00 | 0.00 | 0.00 | 80 | 1018.1 |
| 20260509074955 | 57 | 49 | 6.1 | 8.7 | 0.00 | 0.00 | 0.00 | 81 | 1018.1 |
| 20260509073955 | 57 | 59 | 5.2 | 7.8 | 0.00 | 0.00 | 0.00 | 83 | 1018.1 |
| 20260509072956 | 56 | 71 | 5.2 | 7.8 | 0.00 | 0.00 | 0.00 | 84 | 1018.2 |
| 20260509070957 | 55 | 48 | 3.5 | 6.1 | 0.00 | 0.00 | 0.00 | 88 | 1018.3 |
| 20260509062955 | 51 | 53 | 3.5 | 6.1 | 0.00 | 0.00 | 0.00 | 94 | 1018.2 |
| 20260509061956 | 51 | 54 | 3.5 | 6.1 | 0.00 | 0.00 | 0.00 | 94 | 1018.2 |
| 20260509060955 | 50 | 51 | 3.5 | 6.1 | 0.00 | 0.00 | 0.00 | 95 | 1018.2 |
| 20260509054956 | 48 | 56 | 1.7 | 3.5 | 0.00 | 0.00 | 0.00 | 97 | 1018.1 |
| 20260509053955 | 48 | 70 | 1.7 | 2.6 | 0.00 | 0.00 | 0.00 | 97 | 1018.0 |
| 20260509052956 | 47 | 64 | 0.9 | 1.7 | 0.00 | 0.00 | 0.00 | 98 | 1017.9 |
| 20260509050956 | 45 | 63 | 0.0 | 0.9 | 0.00 | 0.00 | 0.00 | 98 | 1017.9 |
| 20260509045956 | 44 | 0 | 0.0 | 0.0 | 0.00 | 0.00 | 0.00 | 98 | 1017.8 |
| 20260509044955 | 44 | 0 | 0.0 | 0.0 | 0.00 | 0.00 | 0.00 | 97 | 1017.8 |
| 20260509043956 | 43 | 0 | 0.0 | 0.0 | 0.00 | 0.00 | 0.00 | 97 | 1017.7 |
| 20260509041956 | 43 | 0 | 0.0 | 0.0 | 0.00 | 0.00 | 0.00 | 97 | 1017.6 |
| 20260509040955 | 44 | 0 | 0.0 | 0.0 | 0.00 | 0.00 | 0.00 | 97 | 1017.6 |
| 20260509035956 | 44 | 0 | 0.0 | 0.0 | 0.00 | 0.00 | 0.00 | 97 | 1017.6 |
| 20260509034956 | 44 | 0 | 0.0 | 0.0 | 0.00 | 0.00 | 0.00 | 97 | 1017.6 |
| 20260509033955 | 43 | 0 | 0.0 | 0.0 | 0.00 | 0.00 | 0.00 | 97 | 1017.6 |
| 20260509032956 | 43 | 63 | 0.0 | 0.9 | 0.00 | 0.00 | 0.00 | 97 | 1017.6 |
| 20260509030956 | 43 | 65 | 0.9 | 2.6 | 0.00 | 0.00 | 0.00 | 96 | 1017.7 |
| 20260509025956 | 43 | 71 | 0.0 | 0.9 | 0.00 | 0.00 | 0.00 | 96 | 1017.9 |
| 20260509024956 | 43 | 71 | 0.0 | 0.9 | 0.00 | 0.00 | 0.00 | 96 | 1017.9 |
| 20260509022957 | 44 | 0 | 0.0 | 0.0 | 0.00 | 0.00 | 0.00 | 95 | 1017.9 |
| 20260509021956 | 44 | 0 | 0.0 | 0.0 | 0.00 | 0.00 | 0.00 | 95 | 1017.9 |
| 20260509020956 | 45 | 0 | 0.0 | 0.0 | 0.00 | 0.00 | 0.00 | 95 | 1017.9 |
| 20260509015956 | 45 | 0 | 0.0 | 0.0 | 0.00 | 0.00 | 0.00 | 95 | 1018.0 |
| 20260509014956 | 45 | 0 | 0.0 | 0.0 | 0.00 | 0.00 | 0.00 | 96 | 1018.0 |
| 20260509013958 | 45 | 0 | 0.0 | 0.0 | 0.00 | 0.00 | 0.00 | 95 | 1018.0 |
| 20260509012956 | 45 | 0 | 0.0 | 0.0 | 0.00 | 0.00 | 0.00 | 95 | 1018.1 |
| 20260509011956 | 45 | 70 | 0.0 | 0.9 | 0.00 | 0.00 | 0.00 | 94 | 1018.1 |
| 20260509010956 | 45 | 71 | 0.0 | 0.9 | 0.00 | 0.00 | 0.00 | 94 | 1018.1 |
| 20260509005957 | 45 | 71 | 0.9 | 1.7 | 0.00 | 0.00 | 0.00 | 93 | 1018.1 |
| 20260509003956 | 46 | 0 | 0.0 | 0.0 | 0.00 | 0.00 | 0.00 | 92 | 1018.1 |
| 20260509002956 | 46 | 0 | 0.0 | 0.0 | 0.00 | 0.00 | 0.00 | 92 | 1018.1 |
| 20260509001956 | 46 | 71 | 0.0 | 0.9 | 0.00 | 0.00 | 0.00 | 91 | 1018.1 |
| 20260508234957 | 47 | 70 | 0.9 | 3.5 | 0.00 | 0.00 | 0.00 | 90 | 1018.1 |
| 20260508233956 | 48 | 64 | 0.9 | 2.6 | 0.00 | 0.00 | 0.00 | 90 | 1018.1 |
| 20260508232957 | 48 | 51 | 0.9 | 2.6 | 0.00 | 0.00 | 0.00 | 90 | 1018.1 |
| 20260508231957 | 48 | 49 | 1.7 | 2.6 | 0.00 | 0.00 | 0.00 | 91 | 1018.1 |
| 20260508230957 | 48 | 44 | 0.0 | 1.7 | 0.00 | 0.00 | 0.00 | 90 | 1018.1 |
| 20260508224958 | 49 | 36 | 1.7 | 2.6 | 0.00 | 0.00 | 0.00 | 89 | 1018.0 |
| 20260508223957 | 49 | 0 | 0.0 | 0.0 | 0.00 | 0.00 | 0.00 | 88 | 1018.1 |
| 20260508222957 | 49 | 0 | 0.0 | 0.0 | 0.00 | 0.00 | 0.00 | 87 | 1018.0 |
| 20260508221957 | 50 | 0 | 0.0 | 0.0 | 0.00 | 0.00 | 0.00 | 86 | 1018.0 |
| 20260508220957 | 50 | 0 | 0.0 | 0.0 | 0.00 | 0.00 | 0.00 | 85 | 1018.0 |
| 20260508220000 | 50 | 0 | 0.0 | 0.0 | 0.00 | 0.00 | 0.00 | 85 | 1018.0 |
| 20260508214956 | 51 | 22 | 1.7 | 2.6 | 0.00 | 0.00 | 0.00 | 84 | 1018.0 |
| 20260508213956 | 51 | 52 | 0.0 | 1.7 | 0.00 | 0.00 | 0.00 | 84 | 1018.0 |
| 20260508212958 | 51 | 51 | 0.0 | 1.7 | 0.00 | 0.00 | 0.00 | 83 | 1017.9 |
| 20260508211957 | 51 | 51 | 0.9 | 2.6 | 0.00 | 0.00 | 0.00 | 84 | 1017.9 |
| 20260508210957 | 52 | 55 | 1.7 | 2.6 | 0.00 | 0.00 | 0.00 | 83 | 1017.7 |
| 20260508205958 | 53 | 56 | 1.7 | 3.5 | 0.00 | 0.00 | 0.00 | 82 | 1017.8 |
| 20260508204957 | 53 | 60 | 1.7 | 2.6 | 0.00 | 0.00 | 0.00 | 80 | 1017.8 |
| 20260508203957 | 53 | 35 | 0.9 | 1.7 | 0.00 | 0.00 | 0.00 | 81 | 1017.9 |
| 20260508202957 | 54 | 29 | 0.0 | 2.6 | 0.00 | 0.00 | 0.00 | 81 | 1017.9 |
| 20260508201959 | 54 | 16 | 0.9 | 2.6 | 0.00 | 0.00 | 0.00 | 79 | 1017.9 |
| 20260508200957 | 55 | 328 | 0.9 | 3.5 | 0.00 | 0.00 | 0.00 | 77 | 1017.7 |
| 20260508195957 | 55 | 316 | 0.9 | 2.6 | 0.00 | 0.00 | 0.00 | 75 | 1017.6 |
| 20260508194957 | 56 | 37 | 0.0 | 0.9 | 0.00 | 0.00 | 0.00 | 75 | 1017.6 |
| 20260508193957 | 56 | 36 | 0.9 | 1.7 | 0.00 | 0.00 | 0.00 | 74 | 1017.5 |
| 20260508191957 | 58 | 38 | 1.7 | 2.6 | 0.00 | 0.00 | 0.00 | 71 | 1017.3 |
| 20260508183934 | 61 | 44 | 3.5 | 4.3 | 0.00 | 0.00 | 0.00 | 67 | 1016.9 |
| 20260508182935 | 61 | 43 | 3.5 | 4.3 | 0.00 | 0.00 | 0.00 | 66 | 1016.8 |
| 20260508181934 | 61 | 37 | 3.5 | 5.2 | 0.00 | 0.00 | 0.00 | 64 | 1016.8 |
| 20260508180935 | 62 | 40 | 2.6 | 6.1 | 0.00 | 0.00 | 0.00 | 65 | 1016.7 |
| 20260508175935 | 62 | 37 | 3.5 | 6.1 | 0.00 | 0.00 | 0.00 | 63 | 1016.6 |
| 20260508174935 | 62 | 45 | 2.6 | 4.3 | 0.00 | 0.00 | 0.00 | 63 | 1016.6 |
| 20260508173935 | 62 | 61 | 2.6 | 6.1 | 0.00 | 0.00 | 0.00 | 63 | 1016.5 |
| 20260508171935 | 62 | 60 | 3.5 | 7.0 | 0.00 | 0.00 | 0.00 | 64 | 1016.4 |
| 20260508170934 | 63 | 73 | 3.5 | 6.1 | 0.00 | 0.00 | 0.00 | 62 | 1016.2 |
| 20260508165935 | 63 | 72 | 3.5 | 7.0 | 0.00 | 0.00 | 0.00 | 61 | 1016.0 |
| 20260508164936 | 63 | 66 | 2.6 | 7.0 | 0.00 | 0.00 | 0.00 | 59 | 1016.0 |
| 20260508163934 | 63 | 93 | 5.2 | 7.8 | 0.00 | 0.00 | 0.00 | 57 | 1016.0 |
| 20260508162935 | 64 | 92 | 4.3 | 8.7 | 0.00 | 0.00 | 0.00 | 58 | 1016.1 |
| 20260508161935 | 64 | 94 | 5.2 | 9.6 | 0.00 | 0.00 | 0.00 | 58 | 1016.1 |
| 20260508155935 | 64 | 83 | 5.2 | 7.8 | 0.00 | 0.00 | 0.00 | 58 | 1016.1 |
| 20260508153935 | 64 | 50 | 7.0 | 11.3 | 0.00 | 0.00 | 0.00 | 63 | 1016.3 |
| 20260508152935 | 64 | 45 | 7.0 | 13.0 | 0.00 | 0.00 | 0.00 | 61 | 1016.5 |
| 20260508151935 | 64 | 49 | 7.0 | 9.6 | 0.00 | 0.00 | 0.00 | 62 | 1016.5 |
| 20260508145937 | 63 | 48 | 7.0 | 9.6 | 0.00 | 0.00 | 0.00 | 66 | 1016.6 |
| 20260508144937 | 63 | 51 | 6.1 | 9.6 | 0.00 | 0.00 | 0.00 | 66 | 1016.6 |
| 20260508142935 | 63 | 44 | 7.0 | 9.6 | 0.00 | 0.00 | 0.00 | 65 | 1016.6 |
| 20260508140935 | 63 | 48 | 5.2 | 8.7 | 0.00 | 0.00 | 0.00 | 63 | 1016.8 |
| 20260508135935 | 63 | 48 | 5.2 | 7.0 | 0.00 | 0.00 | 0.00 | 62 | 1016.9 |
| 20260508134935 | 63 | 42 | 4.3 | 7.0 | 0.00 | 0.00 | 0.00 | 63 | 1016.9 |
| 20260508133935 | 62 | 41 | 5.2 | 8.7 | 0.00 | 0.00 | 0.00 | 66 | 1017.0 |
| 20260508132936 | 62 | 50 | 5.2 | 7.8 | 0.00 | 0.00 | 0.00 | 65 | 1017.0 |
| 20260508130936 | 62 | 73 | 2.6 | 7.0 | 0.00 | 0.00 | 0.00 | 61 | 1017.0 |
| 20260508125935 | 62 | 74 | 2.6 | 6.1 | 0.00 | 0.00 | 0.00 | 63 | 1017.1 |
| 20260508124937 | 62 | 82 | 2.6 | 6.1 | 0.00 | 0.00 | 0.00 | 62 | 1017.1 |
| 20260508123936 | 62 | 91 | 1.7 | 6.1 | 0.00 | 0.00 | 0.00 | 65 | 1017.1 |
| 20260508122937 | 62 | 103 | 2.6 | 7.0 | 0.00 | 0.00 | 0.00 | 64 | 1017.1 |
| 20260508121935 | 62 | 104 | 1.7 | 6.1 | 0.00 | 0.00 | 0.00 | 65 | 1017.1 |
| 20260508120936 | 62 | 114 | 3.5 | 7.0 | 0.00 | 0.00 | 0.00 | 64 | 1017.0 |
| 20260508115936 | 62 | 127 | 0.9 | 4.3 | 0.00 | 0.00 | 0.00 | 67 | 1017.0 |